Printer-friendly version

IAU Minor Planet Center

Minor Planet Center

MPEC 2005-V45 : 2005 VK1

The following Minor Planet Electronic Circular may be linked-to from your own Web pages, but must not otherwise be redistributed electronically.


Read MPEC 2005-V44 Read MPEC 2005-V46


M.P.E.C. 2005-V45                                Issued 2005 Nov. 5, 12:12 UT

     The Minor Planet Electronic Circulars contain information on unusual
         minor planets and routine data on comets.  They are published
   on behalf of Commission 20 of the International Astronomical Union by the
          Minor Planet Center, Smithsonian Astrophysical Observatory,
                          Cambridge, MA 02138, U.S.A.

                  Supported in part by the Brinson Foundation
                  Supported in part by the TABASGO Foundation
             Prepared using the Tamkin Foundation Computer Network

                              MPC@CFA.HARVARD.EDU
          URL http://cfa-www.harvard.edu/iau/mpc.html  ISSN 1523-6714

                                   2005 VK1

Observations:
     K05V01K* C2005 11 04.21332 23 54 51.33 +26 28 57.8          18.7 V EV045703
     K05V01K  C2005 11 04.21965 23 54 49.96 +26 26 55.1          18.6 V EV045703
     K05V01K  C2005 11 04.22601 23 54 48.52 +26 24 52.0          18.7 V EV045703
     K05V01K  C2005 11 04.23237 23 54 47.12 +26 22 47.2          18.4 V EV045703
     K05V01K  C2005 11 04.26558 23 54 39.81 +26 12 01.4          18.6 V EV045703
     K05V01K  C2005 11 04.27202 23 54 38.44 +26 09 55.3          18.5 V EV045703
     K05V01K  C2005 11 04.27847 23 54 37.00 +26 07 50.4          18.6 V EV045703
     K05V01K  C2005 11 04.28493 23 54 35.64 +26 05 44.2          18.4 V EV045703
     K05V01K  C2005 11 04.86233 23 53 00.71 +23 01 33.2                 EV045J95
     K05V01K  C2005 11 04.86319 23 53 00.60 +23 01 16.8                 EV045J95
     K05V01K  C2005 11 04.86432 23 53 00.34 +23 00 55.5          18.7 R EV045J95
     K05V01K 5C2005 11 05.12535 23 52 20.85 +21 39 58.6          18.2 R EV045673
     K05V01K 5C2005 11 05.13044 23 52 19.86 +21 38 24.6                 EV045673
     K05V01K  C2005 11 05.13620 23 52 16.54 +21 36 32.0          19.4 R EV045H36
     K05V01K 5C2005 11 05.13641 23 52 18.72 +21 36 34.5                 EV045673
     K05V01K 5C2005 11 05.14097 23 52 17.87 +21 35 10.1                 EV045673
     K05V01K  C2005 11 05.14129 23 52 15.48 +21 34 56.1          19.2 R EV045H36
     K05V01K  C2005 11 05.14639 23 52 14.58 +21 33 24.1          18.6 R EV045H36
     K05V01K  C2005 11 05.14968 23 52 15.45 +21 32 34.6          18.4 R EV045651
     K05V01K  C2005 11 05.15023 23 52 15.35 +21 32 24.7          18.6 R EV045651
     K05V01K  C2005 11 05.15077 23 52 15.26 +21 32 13.8          18.7 R EV045651
     K05V01K  C2005 11 05.15147 23 52 13.79 +21 31 49.1          19.8 R EV045H36
     K05V01K  C2005 11 05.21398 23 52 01.60 +21 12 25.6          19.4 R EV045734
     K05V01K  C2005 11 05.21553 23 52 01.26 +21 11 57.7          18.9 R EV045734

Observer details:
651 Grasslands Observatory, Tucson.  Observer J. E. McGaha.  0.62-m f/5.1
    Newtonian reflector + CCD.
673 Table Mountain Observatory, Wrightwood.  Observer J. Young.  0.6-m f/16
    Cassegrain + CCD.
703 Catalina Sky Survey.  Observers E. J. Christensen, R. A. Kowalski.
    Measurers E. C. Beshore, E. J. Christensen, G. J. Garradd, A. D. Grauer,
    R. E. Hill, R. A. Kowalski, S. M. Larson, R. H. McNaught.  0.68-m Schmidt
    + CCD.
734 Farpoint Observatory.  Observer D. Tibbets.  Measurer J. Burgardt.  0.7-m
    reflector + CCD.
H36 Sandlot Observatory, Scranton.  Observer G. Hug.  0.30-m
    Schmidt-Cassegrain + CCD.
J95 Great Shefford.  Observer P. Birtwhistle.  0.40-m f/6.0 Schmidt-Cassegrain
    + CCD.

Orbital elements:
2005 VK1
Epoch 2005 Aug. 18.0 TT = JDT 2453600.5                 MPC
M  53.01428              (2000.0)            P               Q
n   1.54017980     Peri.  358.42232     -0.73892016     +0.61086740
a   0.7426003      Node   223.79493     -0.61360671     -0.78439795
e   0.4233595      Incl.   24.25638     -0.27835914     +0.10752155
P   0.64           H   22.8           G   0.15           U   9
Residuals in seconds of arc
051104 703  0.7-  0.2-    051104 J95  0.3-  0.0     051105 H36  0.1+  1.3-
051104 703  0.1-  0.1+    051104 J95  0.5+  0.2-    051105 H36  1.3+  1.4+
051104 703  0.3-  0.7+    051104 J95  0.1-  0.2-    051105 651  0.3-  0.7+
051104 703  0.0   0.4-    051105 673  0.6-  0.6+    051105 651  0.2-  1.0+
051104 703  0.2+  0.2+    051105 673  0.8-  0.7+    051105 651  0.0   0.1+
051104 703  0.6+  0.5-    051105 H36  1.1+  0.1+    051105 H36 (4.0+  0.8+)
051104 703  0.0   0.3+    051105 673  0.6-  1.0+    051105 734  0.2-  1.5-
051104 703  0.4+  0.1-    051105 673  0.1-  1.0+    051105 734  0.9-  0.6-

Ephemeris:
2005 VK1                 a,e,i = 0.74, 0.42, 24                  q = 0.4282
Date    TT    R. A. (2000) Decl.     Delta      r     Elong.  Phase     V
2005 11 06    23 50.18   +17 16.7    0.0855   1.057   138.3    38.6    19.1
2005 11 07    23 48.09   +12 33.5    0.0887   1.057   136.2    40.4    19.3
2005 11 08    23 46.32   +08 11.9    0.0925   1.057   133.9    42.5    19.4
2005 11 09    23 44.83   +04 12.4    0.0967   1.057   131.4    44.7    19.6
2005 11 10    23 43.57   +00 34.7    0.101    1.057   128.8    46.9    19.7
2005 11 11    23 42.51   -02 42.5    0.107    1.057   126.3    49.0    19.9
2005 11 12    23 41.63   -05 40.6    0.112    1.056   123.8    51.1    20.1
2005 11 13    23 40.90   -08 21.3    0.118    1.056   121.5    53.1    20.2
2005 11 14    23 40.31   -10 46.4    0.124    1.055   119.2    54.9    20.4
2005 11 15    23 39.84   -12 57.4    0.130    1.055   117.1    56.6    20.5
2005 11 16    23 39.47   -14 55.9    0.136    1.054   115.1    58.2    20.7
2005 11 17    23 39.20   -16 43.3    0.142    1.053   113.2    59.7    20.8
2005 11 18    23 39.01   -18 20.9    0.149    1.052   111.3    61.1    21.0
2005 11 19    23 38.90   -19 49.7    0.156    1.051   109.6    62.4    21.1
2005 11 20    23 38.86   -21 10.7    0.162    1.049   108.0    63.6    21.2
2005 11 21    23 38.87   -22 24.8    0.169    1.048   106.4    64.7    21.3
2005 11 22    23 38.95   -23 32.7    0.176    1.047   104.9    65.8    21.4
2005 11 23    23 39.07   -24 35.2    0.183    1.045   103.4    66.8    21.6
2005 11 24    23 39.24   -25 32.7    0.189    1.043   102.0    67.7    21.7
2005 11 25    23 39.45   -26 25.8    0.196    1.042   100.7    68.6    21.8
2005 11 26    23 39.70   -27 14.9    0.203    1.040    99.4    69.5    21.9

Timothy B. Spahr             (C) Copyright 2005 MPC           M.P.E.C. 2005-V45

Read MPEC 2005-V44 Read MPEC 2005-V46


Our Web policy. Index to the CBAT/MPC/ICQ pages.


Valid HTML 4.01!